GFSCGP_500_spd_192.txt.gz
Wind_Speed
32 31 32 25 17 19 17 13 14 14 16 13 10 9 8 10 5 5 6 9 12 16 19 22 24 23 25 23 21 21 19 16 16 14 13 12 10 10 12 11 10 13 16 19
38 35 26 22 24 21 14 13 13 17 15 14 12 11 9 10 7 6 8 11 14 18 21 23 24 24 25 24 23 22 19 18 17 14 12 11 10 12 13 12 15 16 17 19
40 25 27 29 29 24 18 11 16 17 16 12 13 12 12 11 9 8 9 12 16 16 19 21 24 26 25 24 23 22 21 18 16 13 11 10 11 12 13 15 16 17 18 19
40 34 33 30 27 25 21 15 21 25 21 6 15 8 16 14 11 11 9 11 14 14 15 17 22 24 25 25 24 22 20 18 15 13 10 10 12 14 15 16 16 18 18 19
43 40 35 33 26 23 19 21 22 22 22 19 14 16 9 15 14 13 12 11 13 15 15 14 24 28 27 27 25 23 20 17 13 12 10 11 13 15 16 16 19 19 20 22
47 43 40 25 26 28 24 23 23 19 19 19 14 17 9 13 14 14 13 13 14 19 17 16 24 29 30 28 25 22 18 15 13 12 11 12 13 13 15 16 16 18 21 22
52 50 44 40 40 39 36 28 19 16 19 14 22 21 19 13 13 15 16 17 17 21 20 20 24 27 27 26 23 19 15 14 12 11 10 11 12 12 13 15 15 18 20 21
52 56 51 44 45 43 38 31 22 21 17 18 22 21 14 17 15 17 19 20 21 24 24 23 24 25 26 25 21 17 14 13 11 10 10 11 10 10 12 13 14 16 17 18
52 53 51 44 40 42 40 40 26 20 20 19 18 21 19 14 18 19 20 21 23 25 26 25 23 23 23 23 20 16 13 12 10 9 9 9 8 9 10 11 11 14 16 17
53 49 53 47 46 43 43 37 34 29 24 25 19 23 16 13 9 18 16 22 27 29 27 25 22 21 21 21 18 14 13 11 9 8 8 8 8 8 10 9 10 12 13 14
54 52 52 52 53 48 46 45 42 28 26 25 22 19 16 14 14 20 18 28 27 26 26 24 22 20 19 17 15 13 11 10 9 7 7 7 8 9 9 10 9 10 11 13
56 54 50 53 47 46 46 45 41 34 34 30 25 19 25 18 17 22 20 25 27 26 26 23 22 20 18 16 14 12 11 9 8 6 5 6 7 9 9 10 9 10 13 16
58 60 57 52 54 54 53 48 46 37 31 38 29 25 26 19 16 21 23 27 28 25 25 24 22 21 19 17 15 13 11 9 6 5 4 6 8 10 10 11 11 12 14 17
62 61 58 57 51 53 57 51 48 44 40 33 39 25 27 23 22 24 24 25 25 23 22 21 23 21 18 17 16 14 11 8 6 5 5 5 8 8 7 6 8 11 15 19
66 62 56 55 45 54 54 50 52 49 42 38 35 36 26 24 26 25 25 27 26 23 23 21 20 18 17 16 16 14 11 7 6 6 4 6 7 7 6 5 10 14 17 20
63 62 60 58 60 61 59 55 54 51 46 41 38 38 38 31 32 31 23 25 27 26 24 21 19 17 16 17 15 13 10 8 8 4 5 5 6 6 7 10 14 15 19 21
67 67 65 60 59 60 64 60 57 54 49 47 46 47 40 35 36 35 32 29 24 24 22 17 15 15 16 15 14 12 10 10 7 4 5 6 7 8 11 13 18 20 22 23
67 67 65 61 59 66 60 57 57 58 52 48 47 48 45 41 38 38 34 31 26 26 22 15 16 15 17 18 15 13 8 8 6 6 6 8 8 9 11 14 19 23 24 23
64 66 66 65 65 60 61 61 60 58 53 53 54 53 51 47 41 45 40 32 28 24 20 18 19 18 20 20 14 12 6 10 7 6 2 4 8 10 14 13 16 19 24 21
63 64 67 66 65 65 57 59 62 60 60 54 53 52 57 53 53 47 43 38 31 28 26 22 23 28 24 22 18 11 7 12 9 5 2 5 9 12 13 17 20 20 23 25
63 64 63 67 68 63 64 60 62 62 55 55 51 53 52 59 53 46 45 43 38 36 33 28 28 31 25 25 20 13 13 15 10 6 6 6 10 14 16 20 24 21 24 27
62 63 63 63 66 68 65 63 61 56 56 52 55 52 55 53 50 53 51 46 45 42 37 32 29 35 33 29 25 19 16 20 17 16 14 10 12 15 16 20 26 23 24 25
62 62 61 61 62 65 63 62 58 55 52 51 50 54 52 57 55 51 54 49 45 44 42 38 33 38 36 33 30 22 18 22 21 22 17 14 16 18 20 22 26 27 25 25
63 64 64 65 59 61 57 63 58 53 54 52 50 50 46 50 56 56 51 53 50 47 46 43 38 41 40 35 35 26 25 21 24 23 22 19 20 21 22 25 27 33 32 31
62 63 66 62 62 53 59 62 61 57 52 53 52 47 46 43 43 46 51 53 50 53 56 51 42 41 41 42 41 36 26 24 28 31 27 23 26 28 28 31 32 37 36 34
62 54 63 54 59 54 54 60 63 55 55 49 48 48 47 45 41 39 42 47 46 49 57 54 46 46 45 46 44 40 36 33 33 32 29 30 32 35 34 34 34 39 36 34

GFSCGP_500_spd_198.txt.gz
Wind_Speed
31 32 32 28 23 16 27 32 14 12 2 14 6 16 9 11 12 11 12 12 10 8 15 20 18 19 19 16 16 16 16 15 12 10 8 7 5 4 6 7 12 14 15 17
34 38 26 27 27 19 24 27 9 9 14 13 12 12 17 7 9 10 12 12 8 6 16 18 19 20 19 20 19 18 17 15 12 10 8 6 4 5 6 7 11 14 17 19
37 29 27 28 32 23 21 24 4 6 17 9 15 5 23 19 12 5 11 8 7 9 17 18 19 20 22 21 21 20 18 15 12 9 8 5 3 5 4 8 12 14 17 18
40 30 32 31 32 25 23 18 11 14 10 8 15 6 18 20 10 10 3 7 5 5 10 16 20 21 22 23 23 21 19 15 12 10 7 6 4 4 5 8 12 14 15 17
43 38 37 35 30 28 25 18 20 18 20 15 17 18 14 16 22 9 8 4 5 5 9 14 18 22 23 23 24 22 18 15 12 9 7 6 4 5 5 8 11 13 16 19
45 41 40 34 31 27 26 22 20 21 18 21 16 18 16 23 18 10 10 7 8 8 11 16 20 24 22 25 25 21 18 15 11 10 8 7 6 5 6 8 10 12 15 17
47 48 40 37 32 29 26 26 24 26 18 21 16 19 23 30 29 24 9 12 11 11 13 16 20 23 22 24 24 20 17 14 12 10 8 9 7 6 6 7 9 12 12 14
48 49 49 40 38 33 32 30 31 26 20 17 26 21 27 31 33 17 12 13 15 14 15 17 24 27 25 26 25 21 17 14 11 9 8 9 9 7 6 7 7 9 9 10
46 47 36 46 35 37 36 37 32 27 23 28 28 25 25 12 10 12 8 13 16 16 17 18 24 29 28 29 25 20 17 14 11 9 9 10 9 9 7 6 6 6 7 7
47 40 42 32 41 35 38 30 36 36 34 36 34 26 29 16 6 7 16 14 17 18 18 17 21 32 30 30 25 21 16 15 12 10 10 10 10 10 8 6 5 4 6 8
47 48 37 31 39 44 40 42 37 33 32 31 30 31 23 25 17 17 25 20 15 19 20 19 22 30 31 28 22 18 15 14 11 9 9 10 10 10 10 8 5 4 6 8
48 48 48 33 34 38 41 42 40 37 38 34 30 34 35 32 28 29 28 23 17 22 25 23 24 28 30 27 23 18 15 14 13 11 10 10 11 10 10 9 6 4 4 7
59 60 54 34 32 38 46 41 43 34 31 34 25 25 31 42 14 22 27 23 22 24 28 27 27 28 29 28 24 20 17 16 14 11 10 10 11 9 9 8 6 3 3 7
66 60 63 46 36 36 40 43 44 39 38 30 28 24 20 27 19 17 27 16 22 24 28 28 27 28 28 28 24 22 19 17 16 14 12 12 13 10 8 5 3 0 4 9
65 61 61 60 38 33 39 38 42 42 41 34 23 25 34 38 23 20 16 14 22 23 28 30 28 28 28 27 24 22 20 18 17 15 14 14 15 10 5 2 2 3 7 13
66 64 61 61 48 40 36 38 40 42 39 37 31 36 35 38 26 27 16 13 19 21 27 30 30 30 28 26 24 22 19 17 17 16 15 14 13 8 3 5 4 7 9 21
67 67 63 60 54 47 43 39 38 45 44 38 39 35 37 35 32 16 11 13 18 23 27 29 27 26 26 23 23 22 21 19 17 17 15 13 13 7 2 4 5 8 10 18
66 68 65 62 58 60 48 36 30 35 45 39 39 32 35 32 22 15 19 15 14 20 26 25 25 27 28 27 26 23 19 18 17 15 13 15 13 4 4 4 5 5 7 14
64 69 68 67 68 58 51 37 29 30 36 44 35 38 27 28 21 26 25 22 18 16 20 23 24 25 26 26 24 21 19 17 16 14 11 14 10 4 4 5 6 5 8 14
64 62 69 68 65 67 54 37 26 33 33 32 40 39 34 41 41 27 19 29 27 25 19 20 22 24 25 23 21 19 17 15 13 10 13 12 7 4 2 2 2 4 6 12
64 62 64 64 66 56 45 37 29 35 32 33 39 48 38 40 45 31 26 20 36 33 26 24 21 25 22 21 19 18 16 11 11 18 20 13 8 7 6 5 7 6 9 13
65 60 64 62 61 45 41 43 41 44 50 46 46 52 48 40 42 43 40 36 28 35 35 30 25 25 24 24 24 20 16 11 18 22 23 19 12 10 10 9 11 10 12 14
52 62 59 61 63 45 45 39 54 55 47 51 50 55 59 56 52 45 31 37 41 37 42 37 33 32 29 27 24 22 18 21 23 22 23 23 20 14 15 11 13 14 15 17
30 38 55 54 59 48 52 51 55 54 51 50 54 55 59 58 62 61 50 37 39 41 43 39 34 37 32 29 27 24 25 28 27 27 23 24 23 21 20 19 17 18 20 22
45 38 58 50 51 52 61 60 58 56 53 56 57 57 56 54 54 53 52 52 52 45 45 43 42 40 37 36 34 31 30 31 32 30 28 26 25 25 22 20 20 22 23 24
49 41 54 60 49 68 68 68 63 61 60 58 58 55 53 51 45 49 53 51 52 52 49 49 48 48 43 41 40 40 38 35 36 38 34 32 30 28 25 23 24 25 27 28

GFSCGP_500_spd_201.txt.gz
Wind_Speed
29 32 31 30 27 19 7 19 24 22 17 12 9 7 5 9 14 11 6 6 6 7 9 15 17 20 19 16 19 19 18 15 14 12 11 11 9 8 10 11 14 16 17 16
35 38 27 29 31 27 14 21 19 19 21 18 4 5 9 7 7 13 8 7 7 6 9 17 18 20 21 19 20 20 19 15 13 11 10 10 8 8 9 11 14 16 16 17
40 28 24 29 31 31 27 17 5 13 9 15 5 2 0 7 9 8 11 7 6 6 9 19 19 20 21 21 21 22 19 16 13 11 9 7 6 7 7 11 12 14 16 17
42 32 31 32 34 30 33 19 14 1 10 8 16 5 3 11 9 5 5 8 3 6 8 15 18 19 22 23 23 23 20 17 13 11 9 7 7 7 8 9 12 13 13 15
41 39 37 36 36 31 30 21 15 14 27 2 14 19 14 21 12 8 3 7 2 5 7 12 15 20 25 24 25 24 20 16 13 11 9 8 7 6 7 8 11 13 14 15
41 39 41 34 30 34 25 23 22 20 26 24 15 18 20 26 29 26 15 5 9 5 9 11 18 23 25 25 26 23 20 17 13 10 9 8 8 5 7 8 8 12 14 14
44 43 42 39 36 32 30 26 29 25 25 22 10 10 22 25 25 31 17 11 11 10 10 11 15 21 24 26 27 24 20 17 13 11 10 8 7 6 6 6 7 10 11 12
45 45 42 42 42 35 39 30 32 27 20 8 11 19 28 30 22 16 23 24 15 12 11 13 17 21 24 27 27 23 20 16 13 11 9 8 8 6 5 4 5 8 7 8
47 46 38 40 39 39 39 38 26 26 24 20 23 27 28 31 31 24 4 17 13 13 11 14 17 21 25 28 27 24 20 17 14 11 9 8 8 6 5 3 3 6 6 6
45 46 44 39 39 39 41 35 32 34 34 32 34 30 30 25 14 15 12 12 8 12 12 15 17 23 25 30 29 26 21 18 15 12 10 9 9 8 5 3 2 3 4 5
45 47 45 46 47 44 39 44 42 36 39 37 34 34 26 26 14 18 17 13 8 10 12 15 17 26 28 32 29 25 21 17 14 12 10 9 9 9 8 5 3 2 4 8
47 53 50 47 46 37 36 42 44 42 42 41 32 27 30 30 19 27 24 21 11 5 15 16 15 25 32 32 28 24 19 17 15 13 12 10 9 8 8 6 5 2 3 6
52 55 55 47 49 44 38 39 40 45 38 46 34 30 32 38 32 31 33 27 20 15 16 18 17 20 32 32 27 23 19 18 16 14 13 10 9 8 8 6 5 3 2 5
62 60 59 55 47 44 39 34 42 43 46 42 42 32 31 32 26 36 32 29 11 14 17 18 20 22 29 32 30 26 22 19 17 15 14 12 10 10 7 5 4 3 2 4
66 63 61 55 50 51 43 36 33 44 43 41 35 23 28 30 33 26 36 31 14 18 18 18 24 26 29 32 32 28 23 19 18 16 16 14 12 11 8 6 6 5 2 11
69 66 65 59 56 52 46 43 45 36 43 41 33 29 35 32 16 20 37 32 20 16 15 20 29 29 30 32 32 29 25 21 19 17 17 15 12 11 10 7 7 5 4 5
65 65 64 58 57 55 53 45 42 35 28 41 39 32 36 37 25 28 31 26 20 16 15 22 29 29 30 30 30 28 27 25 21 20 18 14 12 13 11 9 6 6 3 2
62 61 63 60 60 59 52 40 35 32 31 31 40 39 34 30 35 29 24 8 11 12 17 23 26 28 29 30 30 31 29 25 23 20 17 15 13 13 13 7 4 6 5 5
53 57 62 62 68 63 51 40 36 22 19 28 35 44 36 35 34 32 31 27 15 12 14 16 21 25 26 26 27 27 26 25 23 18 16 14 13 13 12 3 2 6 5 2
60 49 60 62 67 67 51 42 40 31 25 30 28 41 38 38 38 37 20 23 16 17 12 18 20 22 22 24 26 25 24 23 21 18 16 15 13 15 8 4 3 6 5 3
56 56 55 60 67 66 57 50 42 37 33 29 42 44 40 36 37 39 33 32 31 23 17 12 15 19 21 23 23 25 24 21 19 18 16 16 18 15 9 5 4 8 9 8
52 53 54 55 62 66 60 53 46 46 42 36 40 42 48 40 42 41 28 34 39 35 28 22 18 15 13 21 24 24 21 16 18 15 15 20 20 16 11 9 9 12 14 13
48 49 50 56 54 65 66 58 50 47 43 44 37 41 47 45 47 46 37 27 38 37 38 37 29 22 19 19 22 23 19 19 17 18 18 24 26 23 17 13 14 15 16 15
39 36 45 50 47 57 66 61 61 51 48 42 46 42 45 52 46 48 52 34 54 39 44 43 42 39 35 28 25 23 24 25 24 23 22 21 25 27 25 21 20 18 18 18
39 43 47 46 54 50 55 62 70 65 58 49 56 45 44 44 56 60 58 40 42 34 38 37 43 43 33 30 31 29 26 26 24 24 26 26 24 24 25 26 24 17 21 22
41 44 46 49 56 56 56 66 62 68 69 62 53 57 53 50 50 52 49 49 40 32 37 38 30 31 34 25 31 30 29 29 29 28 26 28 29 31 31 29 27 22 23 26

GFSCGP_500_spd_207.txt.gz
Wind_Speed
39 36 33 32 28 26 24 25 26 24 24 19 13 16 13 8 8 8 6 7 5 4 8 15 19 20 18 19 18 17 15 12 12 11 12 13 16 15 15 14 12 14 15 14
44 38 28 33 35 31 29 30 30 22 24 17 20 12 11 8 4 2 2 3 5 6 6 16 21 23 21 23 22 19 16 13 13 11 12 12 15 15 14 13 11 13 15 15
46 36 32 33 37 37 34 33 28 23 25 23 20 13 13 15 8 6 2 4 4 4 9 15 24 26 24 25 25 21 17 14 12 12 11 11 13 13 14 11 11 14 16 17
45 39 39 38 39 41 40 34 29 26 22 27 23 22 17 17 12 10 7 5 5 5 7 17 27 29 26 29 27 22 18 16 12 11 10 10 11 12 12 10 10 12 14 15
46 41 43 43 38 41 42 34 30 23 23 27 31 29 21 15 13 6 2 8 6 2 7 17 25 29 29 29 27 24 20 17 14 12 10 9 9 11 11 9 10 12 13 13
43 43 47 46 39 41 40 40 35 31 27 32 32 33 22 16 7 7 1 7 7 3 4 16 27 31 28 29 29 26 22 19 15 13 10 9 9 9 12 9 9 11 13 12
44 43 45 47 45 44 45 46 41 40 35 20 25 28 24 23 15 8 3 3 5 7 7 13 20 27 29 27 28 26 23 20 17 14 12 9 8 8 9 9 7 11 10 9
50 47 46 45 48 46 46 48 53 46 34 29 24 35 23 22 17 11 9 8 8 11 8 13 22 26 29 28 28 28 25 22 19 16 14 10 9 8 7 7 6 9 7 7
54 50 44 45 43 49 45 50 47 47 41 44 33 26 25 21 17 14 11 13 14 18 14 16 23 26 30 34 32 29 27 24 21 19 15 12 10 9 7 6 6 7 7 7
58 54 46 40 44 49 49 45 47 52 48 46 36 33 27 21 16 14 12 17 26 20 16 17 22 24 30 34 34 33 30 26 23 20 17 14 12 9 8 6 5 5 7 7
58 57 50 46 50 48 49 51 51 52 51 47 40 42 30 21 15 13 4 6 5 16 22 20 22 23 28 35 36 34 32 28 23 21 19 16 12 10 8 6 5 4 5 5
55 57 52 51 46 47 48 50 50 53 52 49 45 45 30 27 18 14 8 8 3 5 15 19 22 27 29 31 34 35 32 28 24 22 20 17 16 13 10 9 7 6 7 7
54 55 55 51 50 50 52 52 53 54 53 53 49 44 36 32 24 19 14 10 9 3 18 23 23 25 30 31 33 35 32 29 27 23 21 19 17 15 13 10 9 8 9 9
47 56 57 52 51 55 55 55 55 57 55 52 53 44 41 33 26 24 20 17 11 10 25 23 23 24 29 34 35 37 34 31 29 25 22 19 18 17 16 15 12 11 11 12
49 53 57 56 49 53 51 53 55 56 56 55 48 47 43 38 30 30 27 20 19 18 28 24 20 24 28 34 38 39 37 34 30 27 24 21 21 21 18 16 15 14 13 15
54 53 52 55 52 50 51 53 54 53 54 54 50 49 43 41 36 34 31 26 26 13 32 28 26 31 35 35 41 42 39 35 31 29 25 24 23 21 19 19 18 17 17 16
61 57 53 53 54 52 52 54 51 54 55 54 52 45 47 44 44 38 35 31 23 12 27 33 33 34 37 38 44 45 42 39 34 29 28 26 24 21 21 23 20 17 16 18
63 61 59 52 52 54 52 53 54 56 57 56 51 44 43 46 40 38 37 32 28 27 19 37 37 35 36 37 45 47 46 42 36 30 27 26 24 23 23 23 20 18 17 17
57 58 61 55 52 55 52 53 56 56 52 50 51 48 39 40 42 40 37 36 29 25 28 34 38 38 39 39 43 48 47 41 36 30 27 26 24 24 24 21 20 19 17 17
51 53 56 60 54 56 55 53 58 57 46 44 47 45 41 40 45 38 35 35 23 16 19 30 38 37 38 39 43 48 46 41 35 30 28 27 26 26 24 23 22 23 17 14
60 49 48 53 55 57 58 51 57 57 51 43 44 39 38 42 42 41 35 35 27 18 22 25 34 36 36 39 42 41 39 36 32 30 29 30 28 26 26 27 25 22 18 15
58 56 51 56 58 52 60 52 53 57 50 43 37 42 38 43 43 44 35 36 34 30 21 27 26 27 31 40 39 35 31 30 32 32 33 30 28 28 28 29 25 22 19 16
42 60 56 55 54 54 59 60 48 52 51 47 38 37 43 35 39 43 43 42 37 30 28 35 28 31 35 36 34 32 35 33 31 30 30 30 30 30 29 29 27 25 22 19
42 56 60 52 51 53 48 59 60 48 51 48 43 38 40 39 35 40 44 44 39 29 32 34 31 31 34 36 34 33 35 33 32 31 31 32 31 30 30 31 30 28 24 22
40 49 56 59 53 54 44 46 62 56 50 51 42 40 41 43 43 38 37 42 41 33 25 28 31 33 34 34 34 38 38 36 34 33 33 31 31 32 34 36 36 33 31 28
35 40 51 62 60 53 50 48 46 61 49 50 45 43 43 42 44 42 41 39 37 35 34 35 37 37 36 35 35 38 38 37 36 35 32 31 32 32 34 34 35 35 34 34